| time (UTC) | temp C | wind direction | speed KPH | gust KPH | rain 1hr cm | rain 24hr cm | rain mn cm | humidity % | barometer mb |
| 20260510162558 | 26 | 49 | 8.0 | 17.7 | 0.00 | 0.00 | 0.00 | 33 | 1012.7 |
| 20260510162040 | 26 | 52 | 3.2 | 14.5 | 0.00 | 0.00 | 0.00 | 42 | 1012.8 |
| 20260510161548 | 25 | 48 | 3.2 | 8.0 | 0.00 | 0.00 | 0.00 | 44 | 1012.9 |
| 20260510161032 | 25 | 48 | 0.0 | 9.7 | 0.00 | 0.00 | 0.00 | 42 | 1012.9 |
| 20260510160508 | 25 | 48 | 3.2 | 17.7 | 0.00 | 0.00 | 0.00 | 40 | 1013.0 |
| 20260510160027 | 25 | 48 | 11.3 | 17.7 | 0.00 | 0.00 | 0.00 | 40 | 1013.0 |
| 20260510155504 | 25 | 51 | 6.4 | 16.1 | 0.00 | 0.00 | 0.00 | 42 | 1013.0 |
| 20260510155052 | 25 | 51 | 6.4 | 16.1 | 0.00 | 0.00 | 0.00 | 46 | 1013.0 |
| 20260510154609 | 25 | 45 | 0.0 | 16.1 | 0.00 | 0.00 | 0.00 | 44 | 1013.0 |
| 20260510154046 | 25 | 43 | 1.6 | 8.0 | 0.00 | 0.00 | 0.00 | 46 | 1013.1 |
| 20260510153534 | 25 | 42 | 1.6 | 12.9 | 0.00 | 0.00 | 0.00 | 47 | 1013.1 |
| 20260510153014 | 25 | 42 | 4.8 | 16.1 | 0.00 | 0.00 | 0.00 | 49 | 1013.2 |
| 20260510152558 | 25 | 42 | 6.4 | 19.3 | 0.00 | 0.00 | 0.00 | 48 | 1013.2 |
| 20260510152043 | 24 | 41 | 8.0 | 19.3 | 0.00 | 0.00 | 0.00 | 48 | 1013.2 |
| 20260510151550 | 24 | 32 | 1.6 | 9.7 | 0.00 | 0.00 | 0.00 | 53 | 1013.3 |
| 20260510151036 | 23 | 32 | 3.2 | 12.9 | 0.00 | 0.00 | 0.00 | 53 | 1013.3 |
| 20260510150519 | 23 | 32 | 6.4 | 12.9 | 0.00 | 0.00 | 0.00 | 60 | 1013.3 |
| 20260510150029 | 23 | 32 | 3.2 | 9.7 | 0.00 | 0.00 | 0.00 | 60 | 1013.3 |
| 20260510145604 | 23 | 32 | 4.8 | 8.0 | 0.00 | 0.00 | 0.00 | 60 | 1013.3 |
| 20260510145046 | 23 | 32 | 1.6 | 9.7 | 0.00 | 0.00 | 0.00 | 59 | 1013.2 |
| 20260510144616 | 22 | 32 | 4.8 | 9.7 | 0.00 | 0.00 | 0.00 | 61 | 1013.2 |
| 20260510144043 | 22 | 32 | 4.8 | 9.7 | 0.00 | 0.00 | 0.00 | 62 | 1013.2 |
| 20260510143520 | 22 | 32 | 3.2 | 12.9 | 0.00 | 0.00 | 0.00 | 63 | 1013.3 |
| 20260510143042 | 22 | 32 | 4.8 | 12.9 | 0.00 | 0.00 | 0.00 | 64 | 1013.4 |
| 20260510142529 | 22 | 32 | 6.4 | 12.9 | 0.00 | 0.00 | 0.00 | 63 | 1013.5 |
| 20260510142101 | 21 | 32 | 3.2 | 12.9 | 0.00 | 0.00 | 0.00 | 64 | 1013.4 |
| 20260510141507 | 21 | 32 | 6.4 | 12.9 | 0.00 | 0.00 | 0.00 | 66 | 1013.5 |
| 20260510141056 | 21 | 32 | 4.8 | 9.7 | 0.00 | 0.00 | 0.00 | 67 | 1013.5 |
| 20260510140537 | 21 | 32 | 4.8 | 9.7 | 0.00 | 0.00 | 0.00 | 68 | 1013.4 |
| 20260510140048 | 21 | 32 | 4.8 | 9.7 | 0.00 | 0.00 | 0.00 | 68 | 1013.4 |
| 20260510135530 | 20 | 32 | 3.2 | 9.7 | 0.00 | 0.00 | 0.00 | 69 | 1013.4 |
| 20260510135004 | 20 | 32 | 4.8 | 9.7 | 0.00 | 0.00 | 0.00 | 68 | 1013.6 |
| 20260510134521 | 20 | 32 | 3.2 | 8.0 | 0.00 | 0.00 | 0.00 | 69 | 1013.5 |
| 20260510134100 | 20 | 32 | 4.8 | 8.0 | 0.00 | 0.00 | 0.00 | 69 | 1013.6 |
| 20260510133543 | 19 | 32 | 4.8 | 9.7 | 0.00 | 0.00 | 0.00 | 71 | 1013.6 |
| 20260510133032 | 18 | 32 | 4.8 | 8.0 | 0.00 | 0.00 | 0.00 | 73 | 1013.5 |
| 20260510132507 | 18 | 32 | 0.0 | 0.0 | 0.00 | 0.00 | 0.00 | 74 | 1013.5 |
| 20260510132056 | 18 | 32 | 0.0 | 0.0 | 0.00 | 0.00 | 0.00 | 76 | 1013.5 |
| 20260510131556 | 17 | 32 | 0.0 | 0.0 | 0.00 | 0.00 | 0.00 | 77 | 1013.4 |
| 20260510131038 | 17 | 32 | 0.0 | 0.0 | 0.00 | 0.00 | 0.00 | 77 | 1013.4 |
| 20260510130559 | 17 | 32 | 0.0 | 0.0 | 0.00 | 0.00 | 0.00 | 80 | 1013.3 |
| 20260510130003 | 16 | 32 | 0.0 | 0.0 | 0.00 | 0.00 | 0.00 | 83 | 1013.3 |
| 20260510125544 | 16 | 32 | 0.0 | 0.0 | 0.00 | 0.00 | 0.00 | 84 | 1013.3 |
| 20260510125030 | 16 | 32 | 0.0 | 0.0 | 0.00 | 0.00 | 0.00 | 87 | 1013.3 |
| 20260510124552 | 15 | 32 | 0.0 | 0.0 | 0.00 | 0.00 | 0.00 | 89 | 1013.4 |
| 20260510124017 | 15 | 32 | 0.0 | 0.0 | 0.00 | 0.00 | 0.00 | 91 | 1013.3 |
| 20260510123505 | 14 | 32 | 0.0 | 0.0 | 0.00 | 0.00 | 0.00 | 93 | 1013.2 |
| 20260510123028 | 14 | 32 | 0.0 | 0.0 | 0.00 | 0.00 | 0.00 | 95 | 1013.2 |
| 20260510122500 | 13 | 32 | 0.0 | 0.0 | 0.00 | 0.00 | 0.00 | 96 | 1013.2 |
| 20260510122044 | 13 | 32 | 0.0 | 0.0 | 0.00 | 0.00 | 0.00 | 97 | 1013.1 |
| 20260510121557 | 13 | 32 | 0.0 | 0.0 | 0.00 | 0.00 | 0.00 | 97 | 1013.1 |
| 20260510121044 | 12 | 32 | 0.0 | 0.0 | 0.00 | 0.00 | 0.00 | 96 | 1012.9 |
| 20260510120512 | 12 | 32 | 0.0 | 0.0 | 0.00 | 0.00 | 0.00 | 97 | 1012.8 |
| 20260510120033 | 12 | 32 | 0.0 | 0.0 | 0.00 | 0.00 | 0.00 | 97 | 1012.7 |
| 20260510115514 | 12 | 32 | 0.0 | 0.0 | 0.00 | 0.00 | 0.00 | 97 | 1012.7 |
| 20260510115055 | 12 | 32 | 0.0 | 0.0 | 0.00 | 0.00 | 0.00 | 97 | 1012.5 |
| 20260510114505 | 11 | 32 | 0.0 | 0.0 | 0.00 | 0.00 | 0.00 | 97 | 1012.4 |
| 20260510114048 | 11 | 32 | 0.0 | 0.0 | 0.00 | 0.00 | 0.00 | 97 | 1012.4 |
| 20260510113536 | 11 | 32 | 0.0 | 0.0 | 0.00 | 0.00 | 0.00 | 97 | 1012.2 |
| 20260510113051 | 11 | 32 | 0.0 | 0.0 | 0.00 | 0.00 | 0.00 | 97 | 1012.2 |
| 20260510112539 | 11 | 32 | 0.0 | 0.0 | 0.00 | 0.00 | 0.00 | 97 | 1012.0 |
| 20260510112023 | 10 | 32 | 0.0 | 0.0 | 0.00 | 0.00 | 0.00 | 97 | 1011.9 |
| 20260510111534 | 10 | 32 | 0.0 | 0.0 | 0.00 | 0.00 | 0.00 | 97 | 1011.8 |
| 20260510111030 | 10 | 32 | 0.0 | 0.0 | 0.00 | 0.00 | 0.00 | 96 | 1011.8 |
| 20260510110511 | 10 | 32 | 0.0 | 0.0 | 0.00 | 0.00 | 0.00 | 96 | 1011.8 |
| 20260510110044 | 10 | 32 | 0.0 | 0.0 | 0.00 | 0.00 | 0.00 | 96 | 1011.8 |
| 20260510105525 | 10 | 32 | 0.0 | 0.0 | 0.00 | 0.00 | 0.00 | 96 | 1011.7 |
| 20260510105001 | 10 | 32 | 0.0 | 0.0 | 0.00 | 0.00 | 0.00 | 96 | 1011.7 |
| 20260510104511 | 10 | 32 | 0.0 | 0.0 | 0.00 | 0.00 | 0.00 | 96 | 1011.6 |
| 20260510104100 | 10 | 32 | 0.0 | 0.0 | 0.00 | 0.00 | 0.00 | 96 | 1011.4 |
| 20260510103552 | 10 | 32 | 0.0 | 0.0 | 0.00 | 0.00 | 0.00 | 96 | 1011.4 |
| 20260510103011 | 10 | 32 | 0.0 | 0.0 | 0.00 | 0.00 | 0.00 | 96 | 1011.2 |
| 20260510102559 | 10 | 32 | 0.0 | 0.0 | 0.00 | 0.00 | 0.00 | 96 | 1011.1 |
| 20260510102051 | 10 | 32 | 0.0 | 0.0 | 0.00 | 0.00 | 0.00 | 96 | 1011.0 |
| 20260510101502 | 10 | 32 | 0.0 | 0.0 | 0.00 | 0.00 | 0.00 | 96 | 1011.0 |
| 20260510101054 | 10 | 32 | 0.0 | 0.0 | 0.00 | 0.00 | 0.00 | 96 | 1011.0 |
| 20260510100541 | 10 | 32 | 0.0 | 0.0 | 0.00 | 0.00 | 0.00 | 96 | 1011.0 |
| 20260510100056 | 11 | 32 | 0.0 | 0.0 | 0.00 | 0.00 | 0.00 | 96 | 1010.9 |
| 20260510095551 | 11 | 32 | 0.0 | 0.0 | 0.00 | 0.00 | 0.00 | 96 | 1010.9 |
| 20260510095040 | 11 | 32 | 0.0 | 0.0 | 0.00 | 0.00 | 0.00 | 96 | 1010.9 |
| 20260510094602 | 11 | 32 | 0.0 | 1.6 | 0.00 | 0.00 | 0.00 | 96 | 1010.8 |
| 20260510094043 | 11 | 32 | 0.0 | 4.8 | 0.00 | 0.00 | 0.00 | 96 | 1010.7 |
| 20260510093529 | 11 | 32 | 1.6 | 4.8 | 0.00 | 0.00 | 0.00 | 96 | 1010.7 |
| 20260510093111 | 11 | 32 | 0.0 | 3.2 | 0.00 | 0.00 | 0.00 | 96 | 1010.7 |
| 20260510092539 | 11 | 32 | 0.0 | 0.0 | 0.00 | 0.00 | 0.00 | 96 | 1010.6 |
| 20260510092027 | 11 | 32 | 0.0 | 0.0 | 0.00 | 0.00 | 0.00 | 96 | 1010.7 |
| 20260510091537 | 11 | 32 | 0.0 | 0.0 | 0.00 | 0.00 | 0.00 | 96 | 1010.7 |
| 20260510091005 | 11 | 32 | 0.0 | 3.2 | 0.00 | 0.00 | 0.00 | 95 | 1010.7 |
| 20260510090552 | 11 | 32 | 0.0 | 3.2 | 0.00 | 0.00 | 0.00 | 95 | 1010.6 |
| 20260510090105 | 11 | 32 | 0.0 | 0.0 | 0.00 | 0.00 | 0.00 | 95 | 1010.6 |
| 20260510085548 | 12 | 32 | 0.0 | 0.0 | 0.00 | 0.00 | 0.00 | 95 | 1010.4 |
| 20260510085022 | 12 | 32 | 0.0 | 0.0 | 0.00 | 0.00 | 0.00 | 96 | 1010.3 |
| 20260510084539 | 12 | 32 | 0.0 | 0.0 | 0.00 | 0.00 | 0.00 | 96 | 1010.2 |
| 20260510084020 | 12 | 32 | 0.0 | 1.6 | 0.00 | 0.00 | 0.00 | 96 | 1010.1 |
| 20260510083557 | 12 | 32 | 0.0 | 1.6 | 0.00 | 0.00 | 0.00 | 96 | 1010.1 |
| 20260510083015 | 12 | 32 | 0.0 | 0.0 | 0.00 | 0.00 | 0.00 | 95 | 1010.1 |
| 20260510082555 | 12 | 32 | 0.0 | 0.0 | 0.00 | 0.00 | 0.00 | 95 | 1010.0 |
| 20260510082035 | 12 | 32 | 0.0 | 0.0 | 0.00 | 0.00 | 0.00 | 96 | 1010.1 |
| 20260510081544 | 12 | 32 | 0.0 | 0.0 | 0.00 | 0.00 | 0.00 | 96 | 1010.1 |
| 20260510081030 | 12 | 32 | 0.0 | 0.0 | 0.00 | 0.00 | 0.00 | 96 | 1010.0 |
| 20260510080508 | 12 | 32 | 0.0 | 0.0 | 0.00 | 0.00 | 0.00 | 96 | 1009.9 |
| 20260510080028 | 12 | 32 | 0.0 | 0.0 | 0.00 | 0.00 | 0.00 | 96 | 1009.8 |
| 20260510075506 | 12 | 32 | 0.0 | 0.0 | 0.00 | 0.00 | 0.00 | 95 | 1009.8 |
| 20260510075054 | 12 | 32 | 0.0 | 0.0 | 0.00 | 0.00 | 0.00 | 95 | 1009.8 |
| 20260510074605 | 12 | 32 | 0.0 | 0.0 | 0.00 | 0.00 | 0.00 | 95 | 1009.7 |
| 20260510074045 | 13 | 32 | 0.0 | 0.0 | 0.00 | 0.00 | 0.00 | 95 | 1009.8 |
| 20260510073526 | 13 | 32 | 0.0 | 3.2 | 0.00 | 0.00 | 0.00 | 96 | 1009.8 |
| 20260510073044 | 13 | 32 | 0.0 | 3.2 | 0.00 | 0.00 | 0.00 | 96 | 1009.8 |
| 20260510072524 | 13 | 32 | 0.0 | 0.0 | 0.00 | 0.00 | 0.00 | 95 | 1009.6 |
| 20260510072003 | 13 | 32 | 0.0 | 3.2 | 0.00 | 0.00 | 0.00 | 95 | 1009.7 |
| 20260510071553 | 13 | 32 | 0.0 | 4.8 | 0.00 | 0.00 | 0.00 | 95 | 1009.6 |
| 20260510071036 | 13 | 32 | 1.6 | 4.8 | 0.00 | 0.00 | 0.00 | 94 | 1009.6 |
| 20260510070517 | 13 | 32 | 0.0 | 3.2 | 0.00 | 0.00 | 0.00 | 95 | 1009.4 |
| 20260510065555 | 13 | 32 | 0.0 | 4.8 | 0.00 | 0.00 | 0.00 | 95 | 1009.4 |
| 20260510065034 | 13 | 32 | 0.0 | 0.0 | 0.00 | 0.00 | 0.00 | 95 | 1009.4 |
| 20260510064542 | 13 | 32 | 0.0 | 0.0 | 0.00 | 0.00 | 0.00 | 94 | 1009.6 |
| 20260510064020 | 13 | 32 | 0.0 | 0.0 | 0.00 | 0.00 | 0.00 | 94 | 1009.5 |
| 20260510063502 | 13 | 32 | 0.0 | 0.0 | 0.00 | 0.00 | 0.00 | 94 | 1009.5 |
| 20260510063052 | 13 | 32 | 0.0 | 0.0 | 0.00 | 0.00 | 0.00 | 93 | 1009.6 |
| 20260510062536 | 14 | 32 | 0.0 | 0.0 | 0.00 | 0.00 | 0.00 | 94 | 1009.7 |
| 20260510062009 | 14 | 32 | 0.0 | 0.0 | 0.00 | 0.00 | 0.00 | 94 | 1009.7 |
| 20260510061522 | 14 | 32 | 0.0 | 0.0 | 0.00 | 0.00 | 0.00 | 93 | 1009.7 |
| 20260510061003 | 14 | 32 | 0.0 | 0.0 | 0.00 | 0.00 | 0.00 | 94 | 1009.8 |
| 20260510060552 | 14 | 32 | 0.0 | 0.0 | 0.00 | 0.00 | 0.00 | 93 | 1009.8 |
| 20260510060005 | 14 | 32 | 0.0 | 0.0 | 0.00 | 0.00 | 0.00 | 94 | 1009.6 |
| 20260510055550 | 14 | 32 | 0.0 | 0.0 | 0.00 | 0.00 | 0.00 | 93 | 1009.8 |
| 20260510055036 | 15 | 32 | 0.0 | 0.0 | 0.00 | 0.00 | 0.00 | 92 | 1009.8 |
| 20260510054549 | 15 | 32 | 0.0 | 0.0 | 0.00 | 0.00 | 0.00 | 92 | 1009.9 |
| 20260510054031 | 15 | 32 | 0.0 | 0.0 | 0.00 | 0.00 | 0.00 | 91 | 1009.9 |
| 20260510053514 | 15 | 32 | 0.0 | 0.0 | 0.00 | 0.00 | 0.00 | 91 | 1009.8 |
| 20260510053042 | 15 | 32 | 0.0 | 0.0 | 0.00 | 0.00 | 0.00 | 92 | 1009.8 |
| 20260510052506 | 16 | 32 | 0.0 | 0.0 | 0.00 | 0.00 | 0.00 | 92 | 1009.9 |
| 20260510052056 | 16 | 32 | 0.0 | 0.0 | 0.00 | 0.00 | 0.00 | 91 | 1009.8 |
| 20260510051508 | 16 | 32 | 0.0 | 0.0 | 0.00 | 0.00 | 0.00 | 92 | 1009.8 |
| 20260510051059 | 16 | 32 | 0.0 | 0.0 | 0.00 | 0.00 | 0.00 | 91 | 1009.9 |
| 20260510050542 | 16 | 32 | 0.0 | 0.0 | 0.00 | 0.00 | 0.00 | 91 | 1010.0 |
| 20260510050054 | 16 | 32 | 0.0 | 0.0 | 0.00 | 0.00 | 0.00 | 91 | 1010.1 |
| 20260510045537 | 16 | 32 | 0.0 | 0.0 | 0.00 | 0.00 | 0.00 | 91 | 1010.0 |
| 20260510045007 | 16 | 32 | 0.0 | 0.0 | 0.00 | 0.00 | 0.00 | 91 | 1009.9 |
| 20260510044530 | 16 | 32 | 0.0 | 0.0 | 0.00 | 0.00 | 0.00 | 91 | 1010.0 |
| 20260510044022 | 16 | 32 | 0.0 | 0.0 | 0.00 | 0.00 | 0.00 | 91 | 1010.1 |
| 20260510043600 | 16 | 32 | 0.0 | 0.0 | 0.00 | 0.00 | 0.00 | 91 | 1010.1 |
| 20260510043036 | 16 | 32 | 0.0 | 0.0 | 0.00 | 0.00 | 0.00 | 91 | 1009.9 |
| 20260510042556 | 16 | 32 | 0.0 | 0.0 | 0.00 | 0.00 | 0.00 | 91 | 1010.0 |
| 20260510042044 | 16 | 32 | 0.0 | 0.0 | 0.00 | 0.00 | 0.00 | 90 | 1010.0 |
| 20260510041558 | 16 | 32 | 0.0 | 0.0 | 0.00 | 0.00 | 0.00 | 90 | 1010.2 |
| 20260510041046 | 16 | 32 | 0.0 | 0.0 | 0.00 | 0.00 | 0.00 | 89 | 1010.1 |
| 20260510040540 | 17 | 32 | 0.0 | 0.0 | 0.00 | 0.00 | 0.00 | 89 | 1010.0 |
| 20260510040056 | 17 | 32 | 0.0 | 0.0 | 0.00 | 0.00 | 0.00 | 89 | 1010.0 |
| 20260510035546 | 17 | 32 | 0.0 | 3.2 | 0.00 | 0.00 | 0.00 | 88 | 1010.0 |
| 20260510035038 | 17 | 32 | 0.0 | 3.2 | 0.00 | 0.00 | 0.00 | 88 | 1010.2 |
| 20260510034546 | 17 | 32 | 0.0 | 0.0 | 0.00 | 0.00 | 0.00 | 87 | 1010.1 |
| 20260510034031 | 17 | 32 | 0.0 | 0.0 | 0.00 | 0.00 | 0.00 | 87 | 1010.1 |
| 20260510033509 | 17 | 32 | 0.0 | 0.0 | 0.00 | 0.00 | 0.00 | 87 | 1010.1 |
| 20260510033025 | 17 | 32 | 0.0 | 3.2 | 0.00 | 0.00 | 0.00 | 87 | 1010.0 |
| 20260510032600 | 17 | 32 | 0.0 | 4.8 | 0.00 | 0.00 | 0.00 | 87 | 1010.0 |
| 20260510032042 | 17 | 32 | 0.0 | 4.8 | 0.00 | 0.00 | 0.00 | 86 | 1009.8 |
| 20260510031551 | 17 | 32 | 0.0 | 3.2 | 0.00 | 0.00 | 0.00 | 86 | 1010.0 |
| 20260510031034 | 18 | 32 | 0.0 | 6.4 | 0.00 | 0.00 | 0.00 | 84 | 1009.8 |
| 20260510030550 | 18 | 32 | 0.0 | 6.4 | 0.00 | 0.00 | 0.00 | 84 | 1009.7 |
| 20260510030001 | 18 | 32 | 1.6 | 6.4 | 0.00 | 0.00 | 0.00 | 84 | 1009.7 |
| 20260510025555 | 18 | 32 | 0.0 | 4.8 | 0.00 | 0.00 | 0.00 | 84 | 1009.7 |
| 20260510025043 | 18 | 32 | 1.6 | 8.0 | 0.00 | 0.00 | 0.00 | 84 | 1009.7 |
| 20260510024551 | 18 | 32 | 3.2 | 8.0 | 0.00 | 0.00 | 0.00 | 83 | 1009.6 |
| 20260510024034 | 18 | 32 | 0.0 | 8.0 | 0.00 | 0.00 | 0.00 | 83 | 1009.5 |
| 20260510023518 | 18 | 32 | 0.0 | 6.4 | 0.00 | 0.00 | 0.00 | 83 | 1009.4 |
| 20260510023038 | 18 | 32 | 0.0 | 3.2 | 0.00 | 0.00 | 0.00 | 83 | 1009.5 |
| 20260510022525 | 18 | 32 | 0.0 | 4.8 | 0.00 | 0.00 | 0.00 | 82 | 1009.4 |
| 20260510022007 | 18 | 32 | 0.0 | 4.8 | 0.00 | 0.00 | 0.00 | 82 | 1009.4 |
| 20260510021536 | 18 | 32 | 1.6 | 6.4 | 0.00 | 0.00 | 0.00 | 82 | 1009.3 |
| 20260510021000 | 18 | 32 | 3.2 | 6.4 | 0.00 | 0.00 | 0.00 | 82 | 1009.3 |
| 20260510020548 | 18 | 32 | 3.2 | 6.4 | 0.00 | 0.00 | 0.00 | 81 | 1009.2 |
| 20260510020101 | 19 | 32 | 1.6 | 4.8 | 0.00 | 0.00 | 0.00 | 81 | 1009.2 |
| 20260510015546 | 19 | 32 | 0.0 | 4.8 | 0.00 | 0.00 | 0.00 | 81 | 1009.1 |
| 20260510015041 | 19 | 32 | 0.0 | 6.4 | 0.00 | 0.00 | 0.00 | 80 | 1009.0 |
| 20260510014551 | 19 | 32 | 3.2 | 6.4 | 0.00 | 0.00 | 0.00 | 80 | 1008.9 |
| 20260510014041 | 19 | 32 | 1.6 | 6.4 | 0.00 | 0.00 | 0.00 | 79 | 1008.9 |
| 20260510013534 | 19 | 32 | 1.6 | 6.4 | 0.00 | 0.00 | 0.00 | 79 | 1008.7 |
| 20260510013023 | 20 | 32 | 0.0 | 6.4 | 0.00 | 0.00 | 0.00 | 78 | 1008.6 |
| 20260510012501 | 20 | 32 | 0.0 | 6.4 | 0.00 | 0.00 | 0.00 | 78 | 1008.5 |
| 20260510012052 | 20 | 32 | 1.6 | 6.4 | 0.00 | 0.00 | 0.00 | 77 | 1008.4 |
| 20260510011544 | 20 | 32 | 0.0 | 8.0 | 0.00 | 0.00 | 0.00 | 77 | 1008.3 |
| 20260510011027 | 20 | 32 | 3.2 | 6.4 | 0.00 | 0.00 | 0.00 | 77 | 1008.2 |
| 20260510010504 | 20 | 32 | 1.6 | 8.0 | 0.00 | 0.00 | 0.00 | 76 | 1008.0 |
| 20260510010016 | 20 | 32 | 3.2 | 12.9 | 0.00 | 0.00 | 0.00 | 76 | 1008.0 |
| 20260510005501 | 20 | 32 | 1.6 | 9.7 | 0.00 | 0.00 | 0.00 | 76 | 1007.9 |
| 20260510005052 | 20 | 32 | 3.2 | 9.7 | 0.00 | 0.00 | 0.00 | 75 | 1007.8 |
| 20260510004602 | 20 | 32 | 1.6 | 9.7 | 0.00 | 0.00 | 0.00 | 75 | 1007.8 |
| 20260510004048 | 20 | 32 | 1.6 | 9.7 | 0.00 | 0.00 | 0.00 | 75 | 1007.6 |
| 20260510003539 | 20 | 32 | 4.8 | 9.7 | 0.00 | 0.00 | 0.00 | 74 | 1007.6 |
| 20260510003054 | 21 | 32 | 4.8 | 8.0 | 0.00 | 0.00 | 0.00 | 74 | 1007.7 |
| 20260510002546 | 21 | 32 | 1.6 | 6.4 | 0.00 | 0.00 | 0.00 | 73 | 1007.6 |
| 20260510002041 | 21 | 32 | 3.2 | 9.7 | 0.00 | 0.00 | 0.00 | 73 | 1007.6 |
| 20260510001537 | 21 | 32 | 1.6 | 9.7 | 0.00 | 0.00 | 0.00 | 73 | 1007.7 |
| 20260510001001 | 21 | 32 | 4.8 | 12.9 | 0.00 | 0.00 | 0.00 | 73 | 1007.6 |
| 20260510000552 | 21 | 32 | 6.4 | 12.9 | 0.00 | 0.00 | 0.00 | 72 | 1007.5 |
| 20260510000000 | 21 | 33 | 1.6 | 9.7 | 0.00 | 0.00 | 0.00 | 72 | 1007.5 |
| 20260509235545 | 21 | 33 | 1.6 | 4.8 | 0.00 | 0.00 | 0.00 | 72 | 1007.5 |
| 20260509235026 | 21 | 33 | 1.6 | 6.4 | 0.00 | 0.00 | 0.00 | 71 | 1007.5 |
| 20260509234539 | 21 | 33 | 3.2 | 6.4 | 0.00 | 0.00 | 0.00 | 70 | 1007.4 |
| 20260509234023 | 21 | 33 | 3.2 | 6.4 | 0.00 | 0.00 | 0.00 | 70 | 1007.5 |
| 20260509233601 | 22 | 33 | 0.0 | 6.4 | 0.00 | 0.00 | 0.00 | 70 | 1007.4 |
| 20260509233008 | 22 | 33 | 1.6 | 8.0 | 0.00 | 0.00 | 0.00 | 69 | 1007.3 |
| 20260509232554 | 22 | 33 | 3.2 | 8.0 | 0.00 | 0.00 | 0.00 | 69 | 1007.2 |
| 20260509232040 | 22 | 33 | 3.2 | 9.7 | 0.00 | 0.00 | 0.00 | 69 | 1007.0 |
| 20260509231544 | 22 | 33 | 3.2 | 9.7 | 0.00 | 0.00 | 0.00 | 69 | 1007.0 |
| 20260509231019 | 22 | 33 | 1.6 | 9.7 | 0.00 | 0.00 | 0.00 | 68 | 1007.0 |
| 20260509230503 | 22 | 33 | 4.8 | 9.7 | 0.00 | 0.00 | 0.00 | 67 | 1006.9 |
| 20260509230027 | 22 | 33 | 1.6 | 8.0 | 0.00 | 0.00 | 0.00 | 66 | 1006.8 |
| 20260509225511 | 22 | 33 | 0.0 | 8.0 | 0.00 | 0.00 | 0.00 | 66 | 1006.7 |
| 20260509225002 | 22 | 33 | 4.8 | 8.0 | 0.00 | 0.00 | 0.00 | 65 | 1006.4 |
| 20260509224557 | 22 | 33 | 1.6 | 8.0 | 0.00 | 0.00 | 0.00 | 65 | 1006.6 |
| 20260509224048 | 23 | 33 | 3.2 | 16.1 | 0.00 | 0.00 | 0.00 | 63 | 1006.6 |
| 20260509223536 | 23 | 33 | 8.0 | 16.1 | 0.00 | 0.00 | 0.00 | 61 | 1006.7 |
| 20260509223047 | 23 | 32 | 6.4 | 14.5 | 0.00 | 0.00 | 0.00 | 62 | 1006.7 |
| 20260509222534 | 23 | 32 | 6.4 | 12.9 | 0.00 | 0.00 | 0.00 | 62 | 1006.6 |
| 20260509222014 | 23 | 31 | 6.4 | 12.9 | 0.00 | 0.00 | 0.00 | 60 | 1006.6 |
| 20260509221534 | 23 | 31 | 4.8 | 17.7 | 0.00 | 0.00 | 0.00 | 62 | 1006.6 |
| 20260509221009 | 23 | 31 | 8.0 | 19.3 | 0.00 | 0.00 | 0.00 | 60 | 1006.7 |
| 20260509220601 | 23 | 34 | 8.0 | 22.5 | 0.00 | 0.00 | 0.00 | 61 | 1006.7 |
| 20260509220019 | 23 | 30 | 8.0 | 17.7 | 0.00 | 0.00 | 0.00 | 61 | 1006.7 |
| 20260509215524 | 23 | 34 | 6.4 | 20.9 | 0.00 | 0.00 | 0.00 | 62 | 1006.7 |
| 20260509215020 | 23 | 34 | 8.0 | 20.9 | 0.00 | 0.00 | 0.00 | 61 | 1006.7 |
| 20260509214632 | 23 | 39 | 8.0 | 22.5 | 0.00 | 0.00 | 0.00 | 62 | 1006.3 |
| 20260509214056 | 23 | 39 | 11.3 | 22.5 | 0.00 | 0.00 | 0.00 | 61 | 1006.4 |
| 20260509213548 | 23 | 33 | 4.8 | 14.5 | 0.00 | 0.00 | 0.00 | 63 | 1006.2 |
| 20260509213015 | 23 | 35 | 3.2 | 14.5 | 0.00 | 0.00 | 0.00 | 62 | 1006.5 |
| 20260509212554 | 23 | 35 | 4.8 | 14.5 | 0.00 | 0.00 | 0.00 | 63 | 1006.5 |
| 20260509212040 | 23 | 35 | 3.2 | 12.9 | 0.00 | 0.00 | 0.00 | 62 | 1006.4 |
| 20260509211527 | 23 | 35 | 3.2 | 12.9 | 0.00 | 0.00 | 0.00 | 62 | 1006.5 |
| 20260509211001 | 23 | 35 | 3.2 | 16.1 | 0.00 | 0.00 | 0.00 | 62 | 1006.4 |
| 20260509210555 | 23 | 35 | 6.4 | 16.1 | 0.00 | 0.00 | 0.00 | 62 | 1006.2 |
| 20260509210045 | 23 | 36 | 8.0 | 14.5 | 0.00 | 0.00 | 0.00 | 63 | 1006.1 |
| 20260509205536 | 22 | 37 | 4.8 | 12.9 | 0.00 | 0.00 | 0.00 | 62 | 1006.1 |
| 20260509205010 | 22 | 37 | 4.8 | 17.7 | 0.00 | 0.00 | 0.00 | 62 | 1006.1 |
| 20260509204603 | 23 | 37 | 6.4 | 17.7 | 0.00 | 0.00 | 0.00 | 62 | 1006.1 |
| 20260509204047 | 23 | 40 | 8.0 | 16.1 | 0.00 | 0.00 | 0.00 | 58 | 1006.2 |
| 20260509203532 | 23 | 39 | 4.8 | 16.1 | 0.00 | 0.00 | 0.00 | 62 | 1006.3 |
| 20260509203059 | 23 | 39 | 6.4 | 19.3 | 0.00 | 0.00 | 0.00 | 59 | 1006.3 |
| 20260509202543 | 23 | 39 | 8.0 | 20.9 | 0.00 | 0.00 | 0.00 | 58 | 1006.3 |
| 20260509202024 | 23 | 37 | 8.0 | 20.9 | 0.00 | 0.00 | 0.00 | 59 | 1006.4 |
| 20260509201535 | 23 | 35 | 8.0 | 20.9 | 0.00 | 0.00 | 0.00 | 59 | 1006.3 |
| 20260509201024 | 23 | 23 | 11.3 | 20.9 | 0.00 | 0.00 | 0.00 | 58 | 1006.4 |
| 20260509200558 | 24 | 33 | 4.8 | 19.3 | 0.00 | 0.00 | 0.00 | 57 | 1006.4 |
| 20260509200001 | 23 | 33 | 6.4 | 19.3 | 0.00 | 0.00 | 0.00 | 58 | 1006.4 |
| 20260509195549 | 23 | 36 | 4.8 | 17.7 | 0.00 | 0.00 | 0.00 | 57 | 1006.4 |
| 20260509195036 | 23 | 37 | 6.4 | 17.7 | 0.00 | 0.00 | 0.00 | 57 | 1006.6 |
| 20260509194547 | 23 | 35 | 0.0 | 16.1 | 0.00 | 0.00 | 0.00 | 63 | 1006.7 |
| 20260509194016 | 23 | 35 | 9.7 | 16.1 | 0.00 | 0.00 | 0.00 | 63 | 1006.9 |
| 20260509193604 | 22 | 41 | 8.0 | 16.1 | 0.00 | 0.00 | 0.00 | 60 | 1006.9 |
| 20260509193055 | 23 | 41 | 8.0 | 16.1 | 0.00 | 0.00 | 0.00 | 60 | 1006.9 |
| 20260509192538 | 23 | 42 | 1.6 | 20.9 | 0.00 | 0.00 | 0.00 | 60 | 1006.8 |
| 20260509192030 | 23 | 45 | 11.3 | 20.9 | 0.00 | 0.00 | 0.00 | 61 | 1006.9 |
| 20260509191539 | 23 | 36 | 4.8 | 17.7 | 0.00 | 0.00 | 0.00 | 58 | 1006.8 |
| 20260509191006 | 23 | 35 | 8.0 | 17.7 | 0.00 | 0.00 | 0.00 | 62 | 1006.8 |
| 20260509190551 | 22 | 39 | 8.0 | 17.7 | 0.00 | 0.00 | 0.00 | 61 | 1006.7 |
| 20260509190104 | 22 | 37 | 1.6 | 17.7 | 0.00 | 0.00 | 0.00 | 59 | 1006.9 |
| 20260509185551 | 23 | 37 | 8.0 | 17.7 | 0.00 | 0.00 | 0.00 | 57 | 1006.9 |
| 20260509185026 | 22 | 45 | 9.7 | 20.9 | 0.00 | 0.00 | 0.00 | 60 | 1006.9 |
| 20260509184548 | 22 | 52 | 11.3 | 17.7 | 0.00 | 0.00 | 0.00 | 58 | 1006.9 |
| 20260509184012 | 22 | 53 | 8.0 | 24.1 | 0.00 | 0.00 | 0.00 | 59 | 1007.1 |
| 20260509183556 | 22 | 50 | 11.3 | 24.1 | 0.00 | 0.00 | 0.00 | 59 | 1007.1 |
| 20260509183008 | 22 | 48 | 9.7 | 19.3 | 0.00 | 0.00 | 0.00 | 60 | 1007.2 |
| 20260509182555 | 22 | 52 | 6.4 | 20.9 | 0.00 | 0.00 | 0.00 | 62 | 1007.2 |
| 20260509182036 | 22 | 52 | 14.5 | 22.5 | 0.00 | 0.00 | 0.00 | 60 | 1007.5 |
| 20260509181545 | 22 | 58 | 9.7 | 22.5 | 0.00 | 0.00 | 0.00 | 63 | 1007.6 |
| 20260509181019 | 22 | 53 | 6.4 | 20.9 | 0.00 | 0.00 | 0.00 | 61 | 1007.6 |
| 20260509180505 | 22 | 59 | 9.7 | 20.9 | 0.00 | 0.00 | 0.00 | 60 | 1007.6 |
| 20260509180056 | 22 | 55 | 6.4 | 19.3 | 0.00 | 0.00 | 0.00 | 63 | 1007.6 |
| 20260509175538 | 21 | 56 | 11.3 | 19.3 | 0.00 | 0.00 | 0.00 | 65 | 1007.9 |
| 20260509175016 | 22 | 57 | 9.7 | 22.5 | 0.00 | 0.00 | 0.00 | 64 | 1008.1 |
| 20260509174527 | 21 | 57 | 3.2 | 22.5 | 0.00 | 0.00 | 0.00 | 67 | 1008.0 |
| 20260509174005 | 21 | 41 | 6.4 | 17.7 | 0.00 | 0.00 | 0.00 | 65 | 1008.2 |
| 20260509173554 | 21 | 41 | 6.4 | 17.7 | 0.00 | 0.00 | 0.00 | 65 | 1008.2 |
| 20260509173051 | 21 | 41 | 8.0 | 17.7 | 0.00 | 0.00 | 0.00 | 67 | 1008.2 |
| 20260509172532 | 21 | 46 | 6.4 | 17.7 | 0.00 | 0.00 | 0.00 | 68 | 1008.2 |
| 20260509172021 | 20 | 46 | 6.4 | 16.1 | 0.00 | 0.00 | 0.00 | 68 | 1008.2 |
| 20260509171531 | 20 | 46 | 4.8 | 17.7 | 0.00 | 0.00 | 0.00 | 73 | 1008.3 |
| 20260509171018 | 20 | 46 | 11.3 | 24.1 | 0.00 | 0.00 | 0.00 | 69 | 1008.6 |
| 20260509170504 | 20 | 45 | 12.9 | 24.1 | 0.00 | 0.00 | 0.00 | 69 | 1008.8 |
| 20260509170027 | 20 | 44 | 11.3 | 20.9 | 0.00 | 0.00 | 0.00 | 68 | 1008.7 |
| 20260509165508 | 20 | 45 | 9.7 | 29.0 | 0.00 | 0.00 | 0.00 | 72 | 1008.8 |
| 20260509165058 | 20 | 46 | 16.1 | 29.0 | 0.00 | 0.00 | 0.00 | 70 | 1008.9 |
| 20260509164509 | 20 | 43 | 12.9 | 24.1 | 0.00 | 0.00 | 0.00 | 70 | 1008.8 |
| 20260509164058 | 20 | 26 | 9.7 | 22.5 | 0.00 | 0.00 | 0.00 | 71 | 1009.0 |
| 20260509163543 | 20 | 9 | 11.3 | 19.3 | 0.00 | 0.00 | 0.00 | 73 | 1009.1 |
| 20260509163046 | 20 | 4 | 8.0 | 22.5 | 0.00 | 0.00 | 0.00 | 74 | 1009.0 |